#timestamp,LO_Frequency,Hit,Temp,Hum 
1479452415.3,286046880.0,N,0.0,0.0
1479452435.1,286046882.0,N,0.0,0.0
1479452455.9,286046882.1,N,0.0,0.0
1479452475.7,286046882.2,N,0.0,0.0
1479452495.5,286046881.5,N,0.0,0.0
1479452515.4,286046883.8,N,0.0,0.0
1479452535.2,286046881.6,N,0.0,0.0
1479452555.0,286046880.1,N,0.0,0.0
1479452555.9,286046880.1,N,0.0,0.0
1479452575.8,286046882.4,N,0.0,0.0
1479452595.6,286046881.9,N,0.0,0.0
1479452615.5,286046882.6,N,0.0,0.0
1479452635.3,286046882.4,N,0.0,0.0
1479452655.1,286046882.7,N,0.0,0.0
1479452675.9,286046880.1,N,0.0,0.0
1479452695.7,286046881.0,N,0.0,0.0
1479452715.5,286046880.5,N,0.0,0.0
1479452735.4,286046878.6,N,0.0,0.0
1479452755.2,286046880.5,N,0.0,0.0
1479452775.1,286046880.5,N,0.0,0.0
1479452776.0,286046880.5,N,0.0,0.0
1479452795.8,286046878.1,N,0.0,0.0
1479452815.6,286046878.7,N,0.0,0.0
1479452835.5,286046879.3,N,0.0,0.0
1479452855.3,286046876.8,N,0.0,0.0
1479452875.2,286046877.0,N,0.0,0.0
1479452895.9,286046876.5,N,0.0,0.0
1479452915.7,286046878.9,N,0.0,0.0
1479452935.6,286046876.5,N,0.0,0.0
1479452955.4,286046876.6,N,0.0,0.0
1479452975.2,286046879.5,N,0.0,0.0
1479452995.1,286046882.7,N,0.0,0.0
1479452996.0,286046882.7,N,0.0,0.0
1479453015.8,286046880.9,N,0.0,0.0
1479453035.7,286046882.3,N,0.0,0.0
1479453055.5,286046882.1,N,0.0,0.0
1479453075.3,286046882.0,N,0.0,0.0
1479453095.2,286046879.8,N,0.0,0.0
1479453115.9,286046880.3,N,0.0,0.0
1479453135.7,286046881.0,N,0.0,0.0
1479453155.6,286046878.5,N,0.0,0.0
1479453175.4,286046877.0,N,0.0,0.0
1479453195.3,286046878.8,N,0.0,0.0
1479453215.1,286046878.3,N,0.0,0.0
1479453216.0,286046878.3,N,0.0,0.0
1479453235.8,286046884.4,N,0.0,0.0
1479453255.7,286046884.4,N,0.0,0.0
1479453275.5,286046882.0,N,0.0,0.0
1479453295.3,286046882.0,N,0.0,0.0
1479453315.2,286046883.0,N,0.0,0.0
1479453335.0,286046886.0,N,0.0,0.0
1479453335.9,286046886.0,N,0.0,0.0
1479453355.8,286046885.5,N,0.0,0.0
1479453375.6,286046884.7,N,0.0,0.0
1479453395.4,286046887.0,N,0.0,0.0
1479453415.3,286046886.8,N,0.0,0.0
1479453435.1,286046889.1,N,0.0,0.0
1479453455.9,286046888.7,N,0.0,0.0
1479453475.7,286046888.4,N,0.0,0.0
1479453495.5,286046888.8,N,0.0,0.0
1479453515.4,286046886.2,N,0.0,0.0
1479453535.2,286046886.9,N,0.0,0.0
1479453555.0,286046886.4,N,0.0,0.0
1479453555.9,286046886.4,N,0.0,0.0
1479453575.8,286046889.2,N,0.0,0.0
1479453595.6,286046888.7,N,0.0,0.0
1479453615.5,286046889.0,N,0.0,0.0
1479453635.3,286046890.3,N,0.0,0.0
1479453655.1,286046887.7,N,0.0,0.0
1479453675.9,286046888.2,N,0.0,0.0
1479453695.7,286046888.3,N,0.0,0.0
1479453715.5,286046887.8,N,0.0,0.0
1479453735.4,286046890.7,N,0.0,0.0
1479453755.2,286046889.6,N,0.0,0.0
1479453775.1,286046889.4,N,0.0,0.0
1479453776.0,286046889.4,N,0.0,0.0
1479453795.8,286046891.9,N,0.0,0.0
1479453815.6,286046892.2,N,0.0,0.0
1479453835.5,286046891.6,N,0.0,0.0
1479453855.3,286046894.0,N,0.0,0.0
1479453875.2,286046895.3,N,0.0,0.0
1479453895.9,286046895.3,N,0.0,0.0
1479453915.7,286046895.4,N,0.0,0.0
1479453935.6,286046895.3,N,0.0,0.0
1479453955.4,286046896.1,N,0.0,0.0
1479453975.2,286046898.8,N,0.0,0.0
1479453995.1,286046899.5,N,0.0,0.0
1479453996.0,286046899.5,N,0.0,0.0
1479454015.8,286046903.2,N,0.0,0.0
1479454035.7,286046902.7,N,0.0,0.0
1479454055.5,286046903.4,N,0.0,0.0
1479454075.3,286046901.6,N,0.0,0.0
1479454095.2,286046899.1,N,0.0,0.0
1479454115.0,286046901.5,N,0.0,0.0
1479454115.9,286046901.5,N,0.0,0.0
1479454135.7,286046901.5,N,0.0,0.0
1479454155.6,286046903.4,N,0.0,0.0
1479454175.4,286046902.5,N,0.0,0.0
1479454195.3,286046904.2,N,0.0,0.0
1479454215.1,286046904.0,N,0.0,0.0
1479454216.0,286046904.0,N,0.0,0.0
1479454235.8,286046905.9,N,0.0,0.0
1479454255.7,286046907.5,N,0.0,0.0
1479454275.5,286046909.3,N,0.0,0.0
1479454295.4,286046907.1,N,0.0,0.0
1479454315.2,286046909.8,N,0.0,0.0
1479454335.0,286046911.4,N,0.0,0.0
1479454335.9,286046911.4,N,0.0,0.0
1479454355.8,286046914.8,N,0.0,0.0
1479454375.6,286046912.3,N,0.0,0.0
1479454395.4,286046912.5,N,0.0,0.0
1479454415.3,286046910.5,N,0.0,0.0
1479454435.1,286046910.1,N,0.0,0.0
1479454455.9,286046911.3,N,0.0,0.0
1479454475.7,286046910.7,N,0.0,0.0
1479454495.5,286046910.6,N,0.0,0.0
1479454515.4,286046910.1,N,0.0,0.0
1479454535.2,286046910.7,N,0.0,0.0
1479454555.0,286046910.7,N,0.0,0.0
1479454556.0,286046910.7,N,0.0,0.0
1479454575.8,286046911.0,N,0.0,0.0
1479454595.6,286046912.7,N,0.0,0.0
1479454615.5,286046911.9,N,0.0,0.0
1479454635.3,286046913.8,N,0.0,0.0
1479454655.1,286046914.6,N,0.0,0.0
1479454675.9,286046913.4,N,0.0,0.0
1479454695.7,286046911.7,N,0.0,0.0
1479454715.6,286046912.3,N,0.0,0.0
1479454735.4,286046911.8,N,0.0,0.0
1479454755.2,286046911.8,N,0.0,0.0
1479454775.1,286046911.9,N,0.0,0.0
1479454776.0,286046911.9,N,0.0,0.0
1479454795.8,286046914.6,N,0.0,0.0
1479454815.6,286046914.2,N,0.0,0.0
1479454835.5,286046914.3,N,0.0,0.0
1479454855.3,286046914.0,N,0.0,0.0
1479454875.2,286046916.1,N,0.0,0.0
1479454895.9,286046915.2,N,0.0,0.0
1479454915.7,286046916.7,N,0.0,0.0
1479454935.6,286046916.8,N,0.0,0.0
1479454955.4,286046921.2,N,0.0,0.0
1479454975.2,286046920.6,N,0.0,0.0
1479454995.1,286046922.6,N,0.0,0.0
1479454996.0,286046922.6,N,0.0,0.0
1479455015.8,286046920.0,N,0.0,0.0
1479455035.7,286046920.7,N,0.0,0.0
1479455055.5,286046919.7,N,0.0,0.0
1479455075.3,286046919.9,N,0.0,0.0
1479455095.2,286046920.4,N,0.0,0.0
1479455115.0,286046920.6,N,0.0,0.0
1479455115.9,286046920.6,N,0.0,0.0
1479455135.8,286046920.2,N,0.0,0.0
1479455155.6,286046922.8,N,0.0,0.0
1479455175.4,286046922.7,N,0.0,0.0
1479455195.3,286046922.0,N,0.0,0.0
1479455215.1,286046922.1,N,0.0,0.0
1479455235.8,286046921.9,N,0.0,0.0
1479455255.7,286046919.9,N,0.0,0.0
1479455275.5,286046918.1,N,0.0,0.0
1479455295.3,286046918.1,N,0.0,0.0
1479455315.2,286046918.1,N,0.0,0.0
1479455335.0,286046921.2,N,0.0,0.0
1479455335.9,286046921.2,N,0.0,0.0
1479455355.8,286046919.3,N,0.0,0.0
1479455375.6,286046918.7,N,0.0,0.0
1479455395.4,286046918.6,N,0.0,0.0
1479455415.3,286046917.2,N,0.0,0.0
1479455435.1,286046917.6,N,0.0,0.0
1479455455.9,286046915.6,N,0.0,0.0
1479455475.7,286046915.6,N,0.0,0.0
1479455495.5,286046914.2,N,0.0,0.0
1479455515.4,286046914.8,N,0.0,0.0
1479455535.2,286046910.6,N,0.0,0.0
1479455555.0,286046910.8,N,0.0,0.0
1479455555.9,286046910.8,N,0.0,0.0
1479455575.8,286046910.7,N,0.0,0.0
1479455595.6,286046910.2,N,0.0,0.0
1479455615.5,286046911.4,N,0.0,0.0
1479455635.3,286046911.0,N,0.0,0.0
1479455655.1,286046909.8,N,0.0,0.0
1479455675.9,286046909.5,N,0.0,0.0
1479455695.7,286046910.0,N,0.0,0.0
1479455715.5,286046909.8,N,0.0,0.0
1479455735.4,286046909.5,N,0.0,0.0
1479455755.2,286046910.0,N,0.0,0.0
1479455775.1,286046908.3,N,0.0,0.0
1479455776.0,286046908.3,N,0.0,0.0
1479455795.8,286046908.0,N,0.0,0.0
1479455815.6,286046906.5,N,0.0,0.0
1479455835.5,286046903.7,N,0.0,0.0
1479455855.3,286046903.8,N,0.0,0.0
1479455875.1,286046903.7,N,0.0,0.0
1479455895.9,286046906.8,N,0.0,0.0
1479455915.7,286046906.2,N,0.0,0.0
1479455935.6,286046908.4,N,0.0,0.0
1479455955.4,286046908.1,N,0.0,0.0
1479455975.2,286046906.6,N,0.0,0.0
1479455995.1,286046904.6,N,0.0,0.0
1479455996.0,286046904.6,N,0.0,0.0
